• In Sweden
  • List of Countries
  • For 7 days
  • Water Temperature
  • Satellite Maps
  • Weather Map
  • Weather Widgets
  • user-avatar
    Login

    Hourly Weather Avanos

    Today, 21 October, Sunday

    Time Temperature Precipitation Wind Pressure Humidity
    00:00 +18°C° 0 mm 1 mps 680 mmHg 57%
    01:00 +18°C° 0 mm 1 mps 680 mmHg 58%
    02:00 +16°C° 0 mm 2 mps 680 mmHg 60%
    03:00 +16°C° 0.1 mm 2 mps 680 mmHg 62%
    04:00 +16°C° 0.1 mm 2 mps 680 mmHg 64%
    05:00 +15°C° 0.1 mm 2 mps 679 mmHg 66%
    06:00 +16°C° 0.1 mm 2 mps 680 mmHg 63%
    07:00 +18°C° 0.1 mm 1 mps 680 mmHg 60%
    08:00 +19°C° 0.1 mm 1 mps 680 mmHg 57%
    09:00 +20°C° 0 mm 1 mps 680 mmHg 51%
    10:00 +20°C° 0 mm 2 mps 680 mmHg 46%
    11:00 +21°C° 0 mm 2 mps 681 mmHg 40%
    12:00 +23°C° 0.2 mm 2 mps 680 mmHg 39%
    13:00 +23°C° 0.2 mm 2 mps 680 mmHg 38%
    14:00 +24°C° 0.2 mm 2 mps 680 mmHg 36%
    15:00 +23°C° 0.5 mm 2 mps 680 mmHg 40%
    16:00 +21°C° 0.5 mm 2 mps 680 mmHg 44%
    17:00 +20°C° 0.5 mm 2 mps 680 mmHg 48%
    18:00 +19°C° 0.4 mm 2 mps 680 mmHg 53%
    19:00 +18°C° 0.4 mm 2 mps 680 mmHg 58%
    20:00 +18°C° 0.4 mm 1 mps 681 mmHg 62%
    21:00 +18°C° 0 mm 1 mps 681 mmHg 64%
    22:00 +16°C° 0 mm 1 mps 681 mmHg 66%
    23:00 +16°C° 0 mm 1 mps 681 mmHg 69%

    Tomorrow, 22 October, Monday

    Time Temperature Precipitation Wind Pressure Humidity
    00:00 +16°C° 0 mm 1 mps 681 mmHg 70%
    01:00 +14°C° 0 mm 0 mps 681 mmHg 72%
    02:00 +14°C° 0 mm 0 mps 681 mmHg 74%
    03:00 +15°C° 0 mm 1 mps 681 mmHg 75%
    04:00 +14°C° 0 mm 1 mps 681 mmHg 75%
    05:00 +14°C° 0 mm 1 mps 681 mmHg 76%
    06:00 +15°C° 0 mm 1 mps 682 mmHg 73%
    07:00 +16°C° 0 mm 1 mps 682 mmHg 69%
    08:00 +18°C° 0 mm 1 mps 683 mmHg 65%
    09:00 +19°C° 0 mm 1 mps 683 mmHg 60%
    10:00 +20°C° 0 mm 1 mps 683 mmHg 54%
    11:00 +21°C° 0 mm 1 mps 683 mmHg 48%
    12:00 +22°C° 0 mm 1 mps 683 mmHg 46%
    13:00 +22°C° 0 mm 1 mps 682 mmHg 44%
    14:00 +22°C° 0 mm 1 mps 682 mmHg 42%
    15:00 +22°C° 0.1 mm 1 mps 682 mmHg 43%
    16:00 +22°C° 0.1 mm 1 mps 682 mmHg 45%
    17:00 +21°C° 0.1 mm 1 mps 682 mmHg 47%
    18:00 +20°C° 0.1 mm 1 mps 682 mmHg 49%
    19:00 +20°C° 0.1 mm 1 mps 682 mmHg 52%
    20:00 +19°C° 0.1 mm 1 mps 682 mmHg 55%
    21:00 +18°C° 0 mm 1 mps 682 mmHg 57%
    22:00 +18°C° 0 mm 1 mps 682 mmHg 60%
    23:00 +16°C° 0 mm 1 mps 682 mmHg 63%

    Day after tomorrow, 23 October, Tuesday

    Time Temperature Precipitation Wind Pressure Humidity
    00:00 +16°C° 0 mm 1 mps 682 mmHg 64%
    01:00 +15°C° 0 mm 1 mps 682 mmHg 66%
    02:00 +15°C° 0 mm 1 mps 682 mmHg 68%
    03:00 +14°C° 0 mm 1 mps 682 mmHg 68%
    04:00 +14°C° 0 mm 1 mps 681 mmHg 69%
    05:00 +14°C° 0 mm 1 mps 681 mmHg 70%
    06:00 +15°C° 0 mm 1 mps 682 mmHg 65%
    07:00 +16°C° 0 mm 2 mps 682 mmHg 59%
    08:00 +17°C° 0 mm 2 mps 683 mmHg 54%
    09:00 +18°C° 0 mm 2 mps 683 mmHg 48%
    10:00 +20°C° 0 mm 2 mps 683 mmHg 41%
    11:00 +21°C° 0 mm 2 mps 683 mmHg 34%
    12:00 +23°C° 0 mm 2 mps 682 mmHg 33%
    13:00 +22°C° 0 mm 3 mps 682 mmHg 32%
    14:00 +24°C° 0 mm 3 mps 681 mmHg 31%
    15:00 +22°C° 0 mm 3 mps 681 mmHg 33%
    16:00 +21°C° 0 mm 2 mps 681 mmHg 36%
    17:00 +21°C° 0 mm 2 mps 680 mmHg 39%
    18:00 +20°C° 0 mm 2 mps 680 mmHg 42%
    19:00 +19°C° 0 mm 2 mps 680 mmHg 46%
    20:00 +19°C° 0 mm 1 mps 680 mmHg 49%
    21:00 +18°C° 0 mm 1 mps 680 mmHg 52%
    22:00 +18°C° 0 mm 1 mps 680 mmHg 54%
    23:00 +16°C° 0 mm 1 mps 680 mmHg 57%

    24 October, Wednesday

    Time Temperature Precipitation Wind Pressure Humidity
    00:00 +16°C° 0 mm 1 mps 679 mmHg 58%
    01:00 +16°C° 0 mm 1 mps 679 mmHg 60%
    02:00 +15°C° 0 mm 1 mps 679 mmHg 62%
    03:00 +15°C° 0 mm 2 mps 678 mmHg 63%
    04:00 +15°C° 0 mm 2 mps 678 mmHg 65%
    05:00 +15°C° 0 mm 2 mps 678 mmHg 67%
    06:00 +16°C° 0.1 mm 2 mps 678 mmHg 63%
    07:00 +17°C° 0.1 mm 2 mps 678 mmHg 59%
    08:00 +18°C° 0.1 mm 2 mps 678 mmHg 56%
    09:00 +19°C° 0.2 mm 3 mps 678 mmHg 51%
    10:00 +20°C° 0.2 mm 3 mps 678 mmHg 45%
    11:00 +22°C° 0.2 mm 4 mps 677 mmHg 40%
    12:00 +22°C° 0.3 mm 4 mps 677 mmHg 40%
    13:00 +22°C° 0.3 mm 5 mps 676 mmHg 39%
    14:00 +22°C° 0.3 mm 5 mps 675 mmHg 39%
    15:00 +21°C° 0.4 mm 4 mps 675 mmHg 42%
    16:00 +21°C° 0.4 mm 4 mps 675 mmHg 45%
    17:00 +20°C° 0.4 mm 3 mps 674 mmHg 47%
    18:00 +19°C° 0.3 mm 3 mps 674 mmHg 51%
    19:00 +18°C° 0.3 mm 3 mps 674 mmHg 54%
    20:00 +18°C° 0.3 mm 3 mps 673 mmHg 58%
    21:00 +17°C° 0.4 mm 3 mps 673 mmHg 60%
    22:00 +17°C° 0.4 mm 3 mps 673 mmHg 62%
    23:00 +17°C° 0.4 mm 4 mps 673 mmHg 64%

    25 October, Thursday

    Time Temperature Precipitation Wind Pressure Humidity
    00:00 +15°C° 0.3 mm 4 mps 672 mmHg 65%
    01:00 +15°C° 0.3 mm 4 mps 672 mmHg 67%
    02:00 +15°C° 0.3 mm 4 mps 671 mmHg 68%
    03:00 +14°C° 0.1 mm 4 mps 671 mmHg 70%
    04:00 +14°C° 0.1 mm 4 mps 671 mmHg 71%
    05:00 +13°C° 0.1 mm 4 mps 670 mmHg 73%
    06:00 +14°C° 0.2 mm 5 mps 670 mmHg 71%
    07:00 +14°C° 0.2 mm 5 mps 670 mmHg 69%
    08:00 +14°C° 0.2 mm 5 mps 671 mmHg 66%
    09:00 +14°C° 0.7 mm 5 mps 670 mmHg 69%
    10:00 +13°C° 0.7 mm 5 mps 670 mmHg 71%
    11:00 +12°C° 0.7 mm 5 mps 670 mmHg 73%
    12:00 +10°C° 1.6 mm 5 mps 670 mmHg 76%
    13:00 +11°C° 1.6 mm 4 mps 670 mmHg 78%
    14:00 +10°C° 1.6 mm 3 mps 670 mmHg 81%
    15:00 +9°C° 1.1 mm 3 mps 670 mmHg 81%
    16:00 +9°C° 1.1 mm 3 mps 670 mmHg 82%
    17:00 +9°C° 1.1 mm 3 mps 671 mmHg 82%
    18:00 +8°C° 0.7 mm 4 mps 671 mmHg 82%
    19:00 +7°C° 0.7 mm 4 mps 672 mmHg 82%
    20:00 +7°C° 0.7 mm 5 mps 672 mmHg 82%
    21:00 +5°C° 0.8 mm 6 mps 673 mmHg 81%
    22:00 +5°C° 0.8 mm 6 mps 673 mmHg 80%
    23:00 +4°C° 0.8 mm 7 mps 674 mmHg 78%

    26 October, Friday

    Time Temperature Precipitation Wind Pressure Humidity
    00:00 +4°C° 0.6 mm 7 mps 674 mmHg 78%
    01:00 +3°C° 0.6 mm 7 mps 674 mmHg 78%
    02:00 +3°C° 0.6 mm 7 mps 675 mmHg 78%
    03:00 +3°C° 0.4 mm 6 mps 675 mmHg 78%
    04:00 +2°C° 0.4 mm 6 mps 676 mmHg 77%
    05:00 +2°C° 0.4 mm 5 mps 676 mmHg 77%
    06:00 +2°C° 0.2 mm 5 mps 677 mmHg 75%
    07:00 +2°C° 0.2 mm 5 mps 678 mmHg 74%
    08:00 +2°C° 0.2 mm 5 mps 678 mmHg 72%
    09:00 +3°C° 0.1 mm 5 mps 679 mmHg 67%
    10:00 +5°C° 0.1 mm 4 mps 679 mmHg 62%
    11:00 +5°C° 0.1 mm 4 mps 680 mmHg 57%
    12:00 +6°C° 0 mm 5 mps 680 mmHg 53%
    13:00 +7°C° 0 mm 5 mps 680 mmHg 49%
    14:00 +7°C° 0 mm 5 mps 680 mmHg 45%
    15:00 +7°C° 0 mm 4 mps 680 mmHg 48%
    16:00 +6°C° 0 mm 4 mps 681 mmHg 50%
    17:00 +7°C° 0 mm 3 mps 681 mmHg 52%
    18:00 +6°C° 0 mm 2 mps 682 mmHg 55%
    19:00 +6°C° 0 mm 2 mps 683 mmHg 58%
    20:00 +6°C° 0 mm 1 mps 683 mmHg 61%
    21:00 +6°C° 0 mm 1 mps 683 mmHg 62%
    22:00 +6°C° 0 mm 1 mps 684 mmHg 63%
    23:00 +5°C° 0 mm 1 mps 684 mmHg 64%
    Show more